EHI
0 0 0 0 0 0 0 0 0 0 0 0 0 0 0 0 0 0 0 0 0 0 0 0 0 0 0 0 0 0 0 0 0 0 0 0 0 0 0 0 0 0 0
0 0 0 0 0 0 0 0 0 0 0 0 0 0 0 0 0 0 0 0 0 0 0 0 0 0 0 0 0 0 0 0 0 0 0 0 0 0 0 0 0 0 0
0 0 0 0 0 0 0 0 0 0 0 0 0 0 0 0 0 0 0 0 0 0 0 0 0 0 0 0 0 0 0 0 0 0 0 0 0 0 0 0 0 0 0
0 0 0 0 0 0 0 0 0 0 0 0 0 0 0 0 0 0 0 0 0 0 0 0 0 0 0 0 0 0 0 0 0 0 0 0 0 0 0 0 0 0 0
0 0 0 0 0 0 0 0 0 0 0 0 0 0 0 0 0 0 0 0 0 0 0 0 0 0 0 0 0 0 0 0 0 0 0 0 0 0 0 0 0 0 0
0 0 0 0 0 0 0 0 0 0 0 0 0 0 0 0 0 0 0 0 0 0 0 0 0 0 0 0 0 0 0 0 0 0 0 0 0 0 0 0 0 0 0
0 0 0 0 0 0 0 0 0 0 0 0 0 0 0 0 0 0 0 0 0 0 0 0 0 0 0 0 0 0 0 0 0 0 0 0 0 0 0 0 0 0 0
0 0 0 0 0 0 0 0 0 0 0 0 0 0 0 0 0 0 0 0 0 0 0 0 0 0 0 0 0 0 0 0 0 0 0 0 0 0 0 0 0 0 0
0 0 0 0 0 0 0 0 0 0 0 0 0 0 0 0 0 0 0 0 0 0 0 0 0 0 0 0 0 0 0 0 0 0 0 0 0 0 0 0 0 0 0
0 0 0 0 0 0 0 0 0 0 0 0 0 0 0 0 0 0 0 0 0 0 0 0 0 0 0 0 0 0 0 0 0 0 0 0 0 0 0 0 0 0 0
0 0 0 0 0 0 0 0 0 0 0 0 0 0 0 0 0 0 0 0 0 0 0 0 0 0 0 0 0 0 0 0 0 0 0 0 0 0 0 0 0 0 0
0 0 0 0 0 0 0 0 0 0 0 0 0 0 0 0 0 0 0 0 0 0 0 0 0 0 0 0 0 0 0 0 0 0 0 0 0 0 0 0 0 0 0
0 0 0 0 0 0 0 0 0 0 0 0 0 0 0 0 0 0 0 0 0 0 0 0 0 0 0 0 0 0 0 0 0 0 0 0 0 0 0 0 0 0 0
0 0 0 0 0 0 0 0 0 0 0 0 0 0 0 0 0 0 0 0 0 0 0 0 0 0 0 0 0 0 0 0 0 0 0 0 0 0 0 0 0 0 0
0 0 0 0 0 0 0 0 0 0 0 0 0 0 0 0 0 0 0 0 0 0 0 0 0 0 0 0 0 0 0 0 0 0 0 0 0 0 0 0 0 0 0
0 0 0 0 0 0 0 0 0 0 0 0 0 0 0 0 0 0 0 0 0 0 0 0 0 0 0 0 0 0 0 0 0 0 0 0 0 0 0 0 0 0 0
0 0 0 0 0 0 0 0 0 0 0 0 0 0 0 0 0 0 0 0 0 0 0 0 0 0 0 0 0 0 0 0 0 0 0 0 0 0 0 0 0 0 0
0 0 0 0 0 0 0 0 0 0 0 0 0 0 0 0 0 0 0 0 0 0 0 0 0 0 0 0 0 0 0 0 0 0 0 0 0 0 0 0 0 0 0
0 0 0 0 0 0 0 0 0 0 0 0 0 0 0 0 0 0 0 0 0 0 0 0 0 0 0 0 0 0 0 0 0 0 0 0 0 0 0 0 0 0 0
0 0 0 0 0 0 0 0 0 0 0 0 0 0 0 0 0 0 0 0 0 0 0 0 0 0 0 0 0 0 0 0 0 0 0 0 0 0 0 0 0 0 0
0 0 0 0 0 0 0 0 0 0 0 0 0 0 0 0 0 0 0 0 0 0 0 0 0 0 0 0 0 0 0 0 0 0 0 0 0 0 0 0 0 0 0
0 0 0 0 0 0 0 0 0 0 0 0 0 0 0 0 0 0 0 0 0 0 0 0 0 0 0 0 0 0 0 0 0 0 0 0 0 0 0 0 0 0 0
0 0 0 0 0 0 0 0 0 0 0 0 0 0 0 0 0 0 0 0 0 0 0 0 0 0 0 0 0 0 0 0 0 0 0 0 0 0 0 0 0 0 0
0 0 0 0 0 0 0 0 0 0 0 0 0 0 0 0 0 0 0 0 0 0 0 0 0 0 0 0 0 0 0 0 0 0 0 0 0 0 0 0 0 0 0
0 0 0 0 0 0 0 0 0 0 0 0 0 0 0 0 0 0 0 0 0 0 0 0 0 0 0 0 0 0 0 0 0 0 0 0 0 0 0 0 0 0 0
0 0 0 0 0 0 0 0 0 0 0 0 0 0 0 0 0 0 0 0 0 0 0 0 0 0 0 0 0 0 0 0 0 0 0 0 0 0 0 0 0 0 0
Wind_Speed
2 1 1 1 1 1 0 1 2 2 3 3 3 3 4 4 3 2 1 5 4 4 7 9 9 10 10 10 10 11 11 11 12 12 12 13 13 13 13 13 13 13 14
3 2 1 1 1 0 1 1 2 2 2 2 3 4 4 3 3 4 2 2 3 3 5 7 8 9 10 10 10 10 11 11 12 12 13 13 13 14 14 14 14 14 14
3 2 2 1 1 1 1 1 2 2 3 2 3 4 3 4 4 4 3 1 0 1 2 4 6 8 9 9 10 10 11 11 12 12 13 13 14 14 15 15 15 15 16
4 2 2 1 1 1 0 1 1 2 3 3 3 3 3 4 4 3 3 2 1 1 0 2 4 6 8 9 10 11 11 12 12 13 14 14 15 15 16 16 16 16 17
4 3 2 1 1 1 1 1 1 1 2 3 3 4 4 3 3 3 2 2 1 0 0 2 3 5 7 9 10 11 12 13 13 14 14 15 15 16 16 17 17 17 17
4 3 2 2 1 1 0 0 1 1 1 2 3 4 5 4 3 1 1 1 0 0 0 1 1 4 6 9 11 12 13 13 14 14 15 15 16 16 17 17 17 18 18
5 4 2 2 2 1 1 0 1 2 2 2 2 4 5 4 1 1 0 1 2 2 1 2 2 1 2 8 11 13 14 14 15 15 16 16 17 17 17 18 18 18 19
5 4 3 3 3 1 1 1 1 1 1 1 1 2 4 5 3 2 1 1 2 2 2 3 2 2 2 2 6 12 13 14 16 16 17 17 17 18 18 18 19 19 19
5 5 4 3 3 3 2 1 1 1 1 2 0 1 1 3 4 4 3 2 2 2 2 3 3 3 3 2 3 7 12 14 16 17 18 18 18 19 19 19 20 20 20
6 5 5 4 3 3 2 2 2 1 1 1 1 1 2 2 1 4 4 3 3 3 4 3 3 4 4 3 4 8 12 14 16 17 18 19 19 20 20 20 20 21 21
6 6 5 4 4 3 3 2 2 1 2 2 2 1 1 1 3 3 5 5 4 4 4 4 3 3 4 3 3 6 12 14 16 18 19 19 20 20 21 21 21 21 21
4 6 5 5 4 3 3 3 2 2 2 2 2 2 2 2 3 3 4 5 5 4 4 4 4 4 4 3 5 9 12 15 17 19 19 19 20 21 21 21 22 22 22
4 6 5 5 4 4 4 3 3 3 3 3 3 3 3 3 3 3 4 5 6 5 4 4 4 4 4 3 4 9 12 16 18 19 20 20 20 21 22 22 22 22 23
6 7 7 6 5 5 4 4 3 3 3 4 4 4 3 4 3 3 4 4 6 5 4 5 4 4 3 3 5 10 7 17 19 20 20 21 21 21 22 22 22 22 23
6 7 7 6 5 5 5 4 3 4 3 4 4 5 4 4 4 4 4 4 4 7 7 5 3 3 3 4 8 6 5 14 20 21 21 21 22 22 22 22 22 23 23
6 7 7 6 5 5 5 4 4 4 4 4 4 5 5 4 4 4 4 4 5 6 9 5 4 5 6 7 12 8 6 18 20 21 22 22 22 23 23 23 23 23 23
7 7 7 6 6 5 5 4 4 5 5 5 5 6 6 6 5 4 4 5 5 6 11 9 5 5 6 7 8 6 7 7 8 19 22 23 23 23 23 23 23 23 24
7 7 6 6 6 5 5 5 5 5 5 6 6 6 7 5 6 5 5 6 6 6 8 12 7 5 7 7 7 8 8 8 6 16 22 23 23 23 23 23 23 23 24
6 6 6 6 6 5 5 5 5 5 5 6 6 6 7 6 7 6 6 6 6 6 6 8 9 5 5 6 8 8 9 7 9 13 18 19 21 22 22 23 23 23 23
6 6 6 5 5 5 5 5 5 5 5 6 6 6 7 7 8 8 7 7 6 6 6 8 9 7 6 6 6 7 7 5 7 8 12 15 18 21 22 23 23 23 23
6 5 5 4 4 4 5 5 5 5 5 6 6 7 8 10 13 11 9 7 6 6 6 7 9 8 7 5 6 6 8 7 7 6 7 7 8 7 9 15 20 22 23
5 5 5 5 5 5 7 9 7 5 6 7 7 7 8 10 14 18 20 18 14 9 8 8 8 9 9 7 7 7 7 8 8 4 5 7 5 6 6 6 16 22 23
5 5 5 5 5 6 9 10 11 6 6 6 7 7 8 9 12 8 13 18 16 19 19 12 10 11 10 8 8 9 8 10 10 6 6 8 5 7 7 10 20 22 23
4 4 4 5 4 6 9 10 11 6 6 7 8 8 8 8 9 10 8 8 8 9 12 10 9 10 10 9 9 11 11 11 9 6 6 8 6 6 8 6 16 20 21
3 3 3 4 4 5 8 10 10 4 5 7 8 8 8 8 15 19 11 9 9 8 14 19 20 19 22 23 18 9 7 9 9 5 4 5 5 5 5 6 10 16 17
3 3 3 3 4 5 8 9 9 4 5 6 6 7 12 14 18 19 10 8 10 9 8 10 12 14 13 14 20 10 6 7 8 6 3 3 4 3 5 4 3 4 7
Wind_Direction
152 159 200 181 215 220 252 292 294 305 311 319 326 321 313 308 302 298 213 204 230 291 312 317 319 319 319 320 321 321 321 321 320 320 320 319 318 316 311 306 303 298 293
159 175 219 198 214 200 256 276 296 318 313 323 316 302 302 311 310 320 313 229 227 268 306 322 327 326 324 324 324 324 323 321 320 320 319 318 316 315 314 312 308 304 300
168 180 208 199 203 195 294 324 333 335 324 322 316 322 330 319 311 312 321 325 239 224 285 322 333 332 330 329 328 326 326 324 322 320 318 316 314 313 311 309 308 307 303
173 178 184 197 183 120 43 348 332 342 333 337 334 325 316 308 309 313 321 323 21 74 336 301 317 324 324 325 326 325 325 322 319 317 315 314 313 311 309 307 305 304 302
174 162 171 177 131 100 61 336 344 3 341 332 318 307 303 299 295 306 322 337 54 82 150 243 269 296 309 317 320 320 319 318 317 316 314 312 310 308 306 304 303 301 299
164 153 157 150 113 112 100 325 331 349 328 320 323 309 291 275 262 265 310 335 315 275 309 309 271 281 293 310 316 317 316 317 317 316 314 312 309 307 304 302 300 299 297
159 150 146 144 128 134 159 54 43 1 336 354 353 322 305 287 239 159 8 352 332 316 302 295 284 299 307 311 314 313 315 316 316 316 315 313 310 308 305 302 300 298 296
156 151 153 152 141 133 109 78 76 33 333 14 36 347 337 338 352 347 328 299 301 318 324 312 310 311 304 300 302 310 313 313 315 315 313 312 310 308 306 304 302 300 298
158 152 155 149 147 145 156 166 142 144 271 310 81 126 16 300 318 312 302 299 302 307 300 302 300 302 299 292 294 307 307 310 311 313 313 312 311 309 307 306 305 304 302
158 156 159 156 154 152 160 176 159 166 164 252 302 208 202 211 273 309 311 311 320 303 289 287 292 291 286 281 283 298 303 305 309 310 311 311 310 309 308 307 305 304 302
161 161 162 160 161 162 166 167 163 178 181 200 217 241 263 274 229 235 282 299 305 287 288 282 276 276 274 267 263 281 296 302 306 307 308 308 308 308 307 307 305 303 301
167 167 164 166 169 166 170 173 182 199 211 218 221 217 212 223 239 240 262 284 288 283 286 273 267 264 259 256 265 285 293 299 301 303 304 304 305 305 304 304 302 301 299
172 178 170 174 174 172 172 174 188 208 213 218 224 229 228 230 231 238 260 278 285 289 283 274 259 262 264 257 266 283 289 296 298 299 300 300 301 301 301 300 300 299 298
175 171 170 173 176 175 176 179 193 211 211 218 230 232 234 240 235 231 238 265 290 289 277 273 283 267 278 281 276 285 283 292 295 297 298 298 298 297 297 298 298 297 297
160 161 166 173 179 178 179 182 201 214 214 221 228 233 236 240 237 236 234 223 244 281 285 271 279 286 297 287 285 280 266 287 294 296 297 297 297 297 297 297 295 294 294
154 158 167 173 177 182 187 192 204 214 220 229 226 232 240 241 241 236 235 235 228 247 272 265 265 280 288 291 293 293 283 296 297 297 297 296 296 296 296 296 295 294 294
158 165 170 174 181 188 193 199 211 216 225 237 238 238 244 243 245 242 239 239 240 241 267 275 261 273 280 284 290 287 286 282 285 293 295 295 296 297 297 297 296 295 294
162 165 168 176 186 191 196 204 217 223 228 238 242 244 250 251 250 247 243 243 244 243 258 277 278 272 271 276 279 281 286 284 277 289 292 293 294 296 297 297 296 295 294
161 166 171 182 193 197 202 210 217 226 233 240 243 246 251 252 256 252 250 250 251 258 256 272 281 275 273 277 281 278 275 274 277 284 288 290 291 293 295 297 297 297 297
167 174 181 188 194 200 206 214 220 231 240 246 248 249 251 249 252 253 255 253 256 261 263 271 279 281 276 273 274 280 283 271 275 281 283 285 285 290 293 295 297 298 297
172 175 180 190 199 206 213 216 221 231 241 252 255 254 255 258 261 264 265 259 255 259 265 271 277 283 280 280 274 275 282 282 271 268 272 272 277 275 281 287 292 293 293
175 178 189 198 209 221 230 232 230 229 238 248 257 261 263 265 269 274 276 276 271 267 267 267 273 274 276 272 275 276 281 285 284 253 258 270 269 271 271 266 281 288 292
180 190 198 203 216 228 236 244 246 240 239 247 255 262 270 271 277 269 274 278 278 277 276 274 272 271 274 272 272 275 270 272 275 268 273 277 264 266 267 278 288 292 295
187 197 206 212 223 238 244 252 257 248 245 250 254 258 262 265 267 273 266 265 262 267 272 275 267 269 270 268 261 267 271 273 271 263 255 274 272 264 272 273 287 292 296
196 205 210 217 230 247 251 258 263 249 250 255 258 261 267 267 276 284 282 274 272 269 277 279 280 283 285 288 288 284 279 282 285 274 235 252 269 276 271 268 278 291 301
201 209 225 229 236 249 261 266 269 253 259 265 265 265 273 280 285 289 284 277 278 276 273 277 279 283 284 284 287 280 270 278 285 285 254 257 273 290 288 268 274 297 303